Wind_Speed
10 10 10 10 7 6 10 10 14 9 9 9 12 17 12 11 7 4 9 8 6 5 8 10 10 12 12 11 7 4 6 7 7 7 7 6 6 7 8 10 11 9 6 5 3 3 4 5 6
11 11 11 11 7 9 9 13 10 11 11 11 12 13 13 11 14 13 9 8 4 6 3 6 8 12 11 9 8 7 8 9 9 8 8 7 7 6 7 9 10 9 7 7 5 4 3 4 4
10 10 11 7 10 14 8 13 12 14 13 11 12 12 13 14 15 17 14 12 11 8 8 7 8 11 12 12 12 10 11 11 10 10 9 9 8 6 8 8 9 9 8 7 6 6 5 5 5
10 11 10 11 8 9 11 7 9 14 17 15 13 10 15 16 17 20 17 12 10 10 12 11 11 13 13 12 13 14 14 13 13 12 12 9 8 9 8 8 11 12 11 8 8 8 7 6 6
11 10 13 9 11 12 10 12 11 12 14 16 18 19 15 16 18 19 20 19 13 13 12 15 16 16 16 16 16 16 16 14 15 14 14 14 12 11 11 10 11 13 13 11 10 10 9 8 7
12 11 8 12 9 9 11 12 16 15 15 16 17 19 23 20 16 17 21 21 19 16 16 16 17 17 17 17 16 15 13 12 13 16 16 15 15 14 13 14 13 13 14 14 12 12 11 10 9
12 11 11 10 8 8 9 12 16 17 19 19 20 19 21 23 22 21 20 21 23 23 19 19 18 17 16 16 15 14 13 12 13 15 16 16 15 16 17 17 16 17 16 15 15 14 13 12 11
12 13 10 9 10 9 10 12 13 16 18 19 19 19 22 24 24 26 25 25 25 24 23 21 22 20 20 19 18 15 15 15 16 16 17 17 17 17 20 19 20 18 19 16 17 16 15 14 13
13 13 11 11 11 11 9 10 13 16 17 20 22 23 23 23 24 26 26 27 28 29 29 25 21 21 19 19 18 16 18 16 17 18 19 18 19 19 21 23 21 22 20 20 18 18 18 17 16
15 16 13 14 15 15 14 16 19 21 22 20 22 24 26 26 28 28 28 29 29 30 31 32 27 24 20 20 18 17 16 14 14 20 21 20 19 20 22 25 26 23 23 23 21 21 21 21 19
17 18 16 17 20 20 21 22 25 26 28 22 26 26 28 28 29 33 33 31 31 32 32 30 30 27 24 23 21 19 15 17 20 18 20 19 19 17 19 23 28 28 26 25 25 24 25 24 21
18 18 17 19 21 23 26 28 28 31 33 28 26 30 32 31 32 34 36 37 36 35 33 33 32 30 29 27 21 19 19 18 19 20 21 16 19 16 17 22 28 29 28 29 28 28 27 27 24
17 18 19 21 21 26 28 29 32 37 34 34 30 33 35 36 35 35 38 39 39 39 37 36 35 33 30 30 27 22 21 21 21 19 21 23 21 21 18 24 27 31 30 31 31 31 30 31 28
16 16 18 19 22 27 32 33 34 33 36 38 37 35 38 41 42 38 39 41 42 41 40 40 37 34 34 33 29 25 23 24 26 25 25 28 25 28 27 28 26 34 34 34 34 35 35 35 33
16 18 19 22 23 24 30 31 24 18 25 29 33 35 36 39 43 43 41 41 43 44 41 42 40 39 37 34 31 28 27 29 28 27 27 30 32 33 32 30 34 31 39 40 38 39 42 39 38
16 19 13 14 18 19 22 28 19 19 25 27 28 29 32 34 39 42 39 41 39 46 44 42 43 42 39 36 34 33 31 29 27 27 27 29 33 34 35 35 34 34 39 41 47 49 42 44 39
11 10 9 6 14 16 20 24 22 22 25 29 28 26 26 28 28 29 34 37 37 44 46 43 44 43 40 36 33 33 32 31 31 33 35 32 32 35 37 38 36 36 38 44 51 52 53 44 50
5 7 7 10 15 18 17 22 19 18 22 25 25 25 26 27 25 27 29 32 32 39 48 44 41 38 36 35 34 34 31 28 31 32 35 36 34 32 37 38 37 37 41 45 51 57 54 45 41
5 9 13 12 14 20 19 18 17 17 18 15 16 19 20 19 20 22 25 24 27 34 47 41 38 35 33 33 34 34 34 34 33 33 38 37 34 34 37 36 34 36 41 44 52 58 56 51 40
8 12 13 10 11 20 19 23 11 16 18 16 14 14 15 17 19 20 21 17 19 32 43 34 33 32 32 29 26 28 33 38 37 37 37 35 36 36 38 37 35 37 41 42 48 54 55 46 42
10 13 10 12 19 20 21 17 5 18 13 16 11 14 16 20 18 15 12 12 18 29 35 31 32 33 33 29 30 32 34 36 36 35 35 32 36 40 38 37 36 38 38 43 43 48 55 51 46
12 9 9 14 16 8 17 9 22 10 10 11 12 14 17 18 15 13 7 7 13 23 29 26 28 28 29 28 30 35 36 35 32 32 31 33 37 38 38 35 33 33 37 37 46 46 50 49 49
5 10 13 16 19 21 15 9 6 11 8 10 17 16 16 16 17 5 6 4 11 21 24 24 29 29 27 31 34 34 33 33 32 30 31 35 38 41 42 41 34 36 34 37 36 47 51 55 46
4 10 15 6 8 6 5 5 7 8 15 19 17 15 14 17 11 7 6 7 11 17 21 23 26 28 30 30 31 32 33 30 30 25 23 27 30 29 27 28 33 36 37 38 31 38 29 34 43
6 9 4 2 2 5 4 6 10 17 19 17 9 9 7 6 7 8 6 5 10 16 18 21 24 25 24 20 16 14 15 17 15 16 17 18 23 21 16 21 26 29 31 36 33 28 24 39 36
8 4 2 3 2 4 6 5 7 15 18 9 7 7 8 7 7 5 6 5 7 10 12 11 12 19 25 16 26 14 15 11 4 13 24 23 12 6 3 9 16 21 23 24 29 40 39 24 31
2 3 5 5 7 5 4 9 11 18 11 7 8 8 10 15 12 9 15 13 5 12 17 22 12 14 19 18 12 13 10 7 3 3 6 15 18 19 9 8 14 20 14 25 24 21 31 25 35
6 9 2 2 3 4 3 6 11 20 10 8 6 3 4 3 5 12 9 8 4 5 10 13 12 14 18 18 17 13 9 8 10 7 8 11 13 10 4 6 5 14 15 20 26 23 24 28 30
7 6 7 5 4 2 4 2 15 17 10 8 7 6 6 6 5 7 12 18 18 17 22 23 23 21 18 13 10 8 8 7 7 7 8 9 9 11 12 15 14 10 10 10 16 19 21 17 18
6 8 12 4 2 5 3 5 12 13 7 8 9 12 16 19 20 22 24 24 21 17 14 13 12 10 9 10 10 10 9 9 10 12 12 12 13 14 14 14 14 14 15 16 19 20 22 23 24
Wind_Direction
227 224 221 217 203 206 226 237 242 244 242 227 212 209 216 205 153 181 163 168 145 181 225 231 240 246 257 245 217 251 277 289 291 297 301 288 272 267 252 238 229 231 233 233 269 298 323 339 330
221 218 210 210 208 204 231 242 238 237 230 220 215 214 217 210 211 215 213 211 211 169 211 234 240 241 238 246 248 260 273 279 285 295 298 305 288 264 242 233 232 232 232 229 254 274 288 311 308
214 209 203 198 214 223 234 232 227 225 221 223 221 223 223 210 214 217 220 229 235 214 210 237 240 236 236 243 247 259 265 266 271 278 287 299 286 269 247 231 232 231 231 235 246 259 270 292 294
198 197 200 212 195 204 220 238 234 231 234 226 224 225 236 234 230 230 227 217 209 208 208 220 238 238 238 240 253 258 263 266 272 276 279 273 268 282 256 238 233 236 240 241 243 248 249 266 285
195 201 215 225 223 229 227 242 250 243 249 246 229 227 234 237 237 238 234 227 212 201 212 213 225 231 235 242 249 255 263 272 275 272 274 268 261 262 262 244 239 245 239 240 245 247 252 260 272
200 202 217 232 240 236 230 233 247 247 241 248 247 238 239 240 240 238 241 234 222 222 209 216 221 222 229 234 236 246 264 278 286 279 272 271 265 253 248 248 244 245 245 248 240 245 249 262 270
207 210 227 238 243 238 227 234 241 250 251 249 254 252 246 243 242 240 234 232 240 232 226 219 225 225 236 245 247 245 248 256 266 274 273 269 265 255 248 245 244 243 241 243 246 241 242 253 267
220 223 239 245 248 246 236 244 248 251 258 260 256 256 254 248 245 244 243 240 240 242 235 230 231 229 235 240 248 251 257 257 257 260 260 265 267 253 244 245 242 245 243 240 244 245 242 244 257
229 232 242 244 250 252 249 252 261 264 261 258 260 257 256 248 246 244 243 245 243 244 245 240 232 239 235 236 239 245 253 254 255 257 254 258 262 261 252 240 244 242 241 238 239 243 244 246 248
232 239 246 249 254 260 267 271 271 268 268 268 263 262 256 251 244 242 241 240 236 238 240 243 240 239 242 238 240 237 241 259 259 253 252 262 259 260 260 250 241 246 242 235 235 237 239 244 248
242 246 254 263 271 276 275 272 272 274 270 269 264 265 262 259 249 243 237 233 234 236 240 237 238 240 240 242 244 248 257 267 271 278 243 248 252 255 264 253 249 249 240 240 239 234 238 241 246
246 253 261 267 274 278 280 279 277 273 275 275 274 270 265 259 255 249 242 237 234 235 237 237 235 237 236 239 241 246 255 260 269 279 286 290 249 248 263 259 257 252 250 245 242 242 239 238 242
255 263 268 274 281 281 283 284 284 279 286 284 278 273 272 268 259 252 251 242 235 234 235 238 237 235 236 239 239 234 243 253 263 269 278 289 280 272 280 271 260 255 254 249 247 246 242 243 239
263 269 275 282 284 287 284 284 284 297 294 289 283 276 271 268 268 258 248 248 241 234 230 232 234 230 234 238 237 240 244 253 259 265 273 277 278 278 281 276 265 261 257 253 251 252 246 240 241
269 275 283 287 289 286 286 292 302 293 300 286 279 276 272 268 267 266 258 248 243 239 231 229 231 230 232 238 244 247 251 258 261 263 267 271 274 270 271 269 266 261 262 257 255 254 250 235 235
283 290 297 294 294 293 298 298 316 314 297 287 293 295 284 280 275 271 268 257 243 237 234 231 229 230 234 240 246 251 253 255 261 268 271 276 272 265 262 264 261 259 255 258 250 261 254 249 234
284 287 305 307 304 301 312 310 329 314 301 295 290 288 288 284 280 276 270 262 249 234 229 228 229 232 236 239 244 247 246 251 262 271 276 273 273 265 261 264 262 258 256 250 250 250 256 260 254
279 296 302 317 308 303 311 314 328 327 316 308 301 291 288 287 280 273 274 270 255 233 223 224 226 228 229 234 241 249 254 254 264 265 265 267 270 271 270 266 263 263 256 250 248 251 253 254 260
280 301 311 321 308 310 323 323 323 333 331 322 307 292 289 287 288 290 286 273 249 226 213 217 219 222 228 238 246 254 264 266 263 265 264 263 264 272 270 269 266 263 259 261 256 250 251 249 253
298 304 317 316 322 311 316 319 302 327 329 320 314 303 302 302 302 299 291 274 234 205 202 207 211 219 231 242 244 254 260 265 268 266 268 260 258 267 272 272 271 266 265 267 262 246 245 246 248
299 311 310 312 320 329 332 327 286 319 318 319 318 308 309 312 310 315 301 258 215 191 194 209 216 224 231 239 251 257 264 270 271 267 265 257 261 265 269 278 268 267 272 269 267 242 243 247 254
311 303 314 328 324 315 317 288 297 289 316 303 299 298 301 316 318 309 299 255 200 185 197 211 220 224 233 244 252 263 270 272 270 270 266 260 267 270 271 272 264 271 270 278 258 245 249 246 248
305 335 324 305 295 297 280 258 280 296 310 313 296 290 293 312 295 305 305 200 191 198 205 213 223 232 240 255 266 272 274 270 272 269 267 261 267 268 270 263 262 266 268 264 259 255 242 244 234
328 308 305 293 262 241 261 232 290 315 320 320 310 308 283 282 292 278 243 226 219 220 222 231 237 244 252 261 263 269 265 266 265 263 281 274 273 273 289 256 255 258 266 261 252 252 250 240 235
282 295 298 307 230 237 279 258 278 315 316 318 308 324 324 306 304 299 304 287 233 225 230 241 249 251 250 268 265 240 233 256 258 281 262 280 288 286 273 254 276 268 252 254 260 239 263 244 243
288 274 268 271 297 302 297 249 280 312 324 311 305 303 312 311 308 282 252 255 265 256 241 240 235 246 247 238 247 276 263 259 256 288 265 262 258 158 131 218 241 246 248 258 248 240 256 243 236
314 292 289 278 289 275 241 288 313 330 337 307 288 283 286 280 256 206 198 166 130 133 156 172 150 139 161 197 163 178 198 215 122 58 39 252 243 258 244 231 236 242 264 260 254 242 246 258 243
23 11 357 274 308 291 267 300 321 350 357 359 343 297 298 332 203 219 225 253 134 108 115 127 135 105 76 58 39 40 69 97 62 11 348 1 359 5 316 220 267 236 241 245 251 249 257 260 259
354 9 345 283 251 302 314 342 347 348 4 7 22 44 90 93 104 121 123 110 108 95 60 54 48 45 48 39 33 21 22 7 356 338 331 333 334 331 330 332 330 304 312 273 241 240 238 243 235
331 327 338 227 207 251 253 296 355 350 360 57 82 90 100 109 111 97 80 68 68 68 61 53 46 36 20 6 354 349 342 340 334 326 323 320 315 312 309 302 296 290 285 285 292 294 277 272 270
Height
3124 3127 3129 3133 3139 3137 3136 3137 3136 3138 3140 3140 3141 3145 3146 3148 3151 3156 3153 3153 3155 3156 3157 3159 3161 3162 3164 3165 3165 3166 3167 3168 3169 3169 3170 3170 3170 3171 3172 3173 3174 3175 3177 3178 3178 3178 3178 3178 3179
3122 3124 3127 3129 3133 3133 3134 3133 3134 3136 3137 3138 3140 3142 3144 3147 3147 3148 3150 3151 3154 3154 3155 3157 3159 3160 3162 3164 3165 3166 3167 3167 3167 3168 3168 3169 3169 3170 3170 3172 3173 3175 3176 3177 3178 3178 3178 3178 3178
3120 3122 3127 3128 3129 3129 3130 3130 3131 3132 3134 3136 3139 3141 3142 3143 3145 3146 3147 3149 3151 3154 3155 3156 3157 3158 3160 3161 3163 3164 3165 3166 3167 3167 3168 3168 3168 3169 3169 3171 3172 3174 3175 3176 3177 3177 3178 3178 3178
3117 3121 3124 3125 3126 3127 3127 3129 3130 3130 3132 3135 3138 3140 3139 3141 3144 3145 3145 3146 3148 3151 3153 3155 3156 3157 3158 3159 3161 3162 3163 3164 3165 3166 3167 3167 3167 3168 3169 3171 3171 3173 3174 3175 3176 3176 3177 3177 3178
3115 3118 3120 3121 3123 3125 3126 3127 3128 3130 3131 3132 3135 3136 3137 3138 3140 3143 3144 3145 3146 3147 3150 3152 3153 3155 3156 3157 3159 3160 3161 3162 3163 3164 3165 3165 3166 3167 3168 3169 3170 3171 3172 3173 3175 3175 3176 3176 3176
3114 3116 3117 3118 3120 3122 3124 3125 3124 3126 3128 3129 3131 3133 3135 3136 3137 3139 3141 3142 3144 3145 3145 3149 3150 3152 3153 3154 3155 3156 3159 3160 3161 3162 3163 3163 3164 3165 3165 3166 3168 3169 3171 3172 3173 3174 3175 3175 3175
3112 3115 3115 3117 3119 3119 3121 3121 3122 3123 3123 3125 3127 3129 3131 3133 3135 3136 3138 3139 3141 3142 3143 3144 3147 3149 3150 3151 3152 3154 3155 3157 3158 3159 3160 3161 3162 3163 3163 3164 3165 3167 3168 3170 3171 3172 3173 3173 3174
3110 3113 3114 3115 3116 3118 3118 3119 3120 3120 3121 3122 3123 3123 3126 3128 3130 3132 3134 3135 3136 3138 3139 3140 3142 3144 3146 3147 3149 3151 3152 3154 3154 3155 3157 3158 3159 3160 3160 3161 3162 3164 3165 3167 3168 3170 3171 3171 3172
3109 3111 3112 3113 3114 3114 3116 3117 3117 3116 3117 3117 3118 3119 3121 3122 3124 3126 3129 3131 3132 3133 3135 3137 3138 3140 3142 3143 3144 3146 3147 3149 3150 3151 3152 3154 3155 3157 3158 3158 3159 3161 3162 3163 3165 3167 3169 3170 3169
3106 3108 3109 3110 3111 3112 3114 3115 3114 3113 3112 3113 3113 3113 3114 3116 3118 3121 3122 3125 3127 3127 3129 3132 3134 3136 3137 3138 3140 3141 3143 3144 3145 3146 3148 3150 3151 3153 3154 3156 3156 3158 3159 3160 3161 3163 3165 3166 3167
3103 3104 3106 3105 3106 3108 3110 3110 3109 3108 3107 3110 3108 3109 3108 3109 3112 3113 3116 3118 3121 3123 3125 3127 3128 3130 3132 3134 3135 3136 3138 3140 3141 3141 3142 3145 3147 3148 3149 3151 3153 3154 3155 3156 3157 3158 3160 3162 3164
3101 3101 3102 3102 3104 3104 3103 3104 3104 3101 3100 3103 3104 3102 3101 3103 3104 3105 3107 3111 3114 3116 3120 3121 3122 3124 3126 3128 3131 3133 3135 3136 3137 3138 3138 3139 3142 3144 3145 3148 3149 3151 3153 3153 3154 3155 3156 3158 3160
3097 3098 3098 3098 3101 3098 3098 3098 3096 3094 3097 3095 3097 3096 3095 3094 3096 3098 3099 3101 3104 3108 3112 3115 3116 3118 3120 3122 3125 3127 3130 3131 3132 3134 3135 3136 3137 3140 3141 3143 3144 3146 3148 3149 3149 3151 3152 3154 3154
3096 3095 3095 3096 3097 3094 3092 3091 3090 3093 3089 3088 3088 3088 3087 3085 3085 3089 3091 3092 3095 3098 3102 3104 3108 3111 3113 3116 3118 3121 3123 3125 3126 3128 3129 3131 3132 3134 3134 3136 3138 3139 3141 3143 3145 3145 3146 3147 3149
3092 3093 3093 3092 3091 3090 3086 3087 3086 3086 3083 3080 3078 3077 3077 3076 3076 3077 3082 3084 3087 3090 3094 3097 3101 3103 3106 3109 3112 3115 3116 3118 3120 3121 3122 3123 3124 3125 3127 3128 3130 3132 3134 3135 3137 3137 3138 3138 3141
3090 3089 3089 3088 3087 3085 3084 3081 3083 3080 3075 3072 3071 3070 3069 3069 3069 3069 3070 3074 3079 3081 3084 3090 3092 3095 3099 3102 3106 3107 3109 3111 3113 3114 3115 3116 3116 3117 3117 3118 3120 3123 3124 3126 3128 3128 3130 3128 3130
3086 3086 3086 3086 3084 3082 3082 3078 3079 3073 3069 3065 3064 3063 3062 3061 3061 3061 3059 3060 3066 3070 3076 3079 3084 3088 3092 3096 3098 3100 3101 3103 3105 3106 3107 3108 3108 3108 3108 3109 3110 3112 3113 3115 3117 3118 3120 3120 3123
3083 3084 3084 3083 3082 3079 3078 3074 3072 3067 3063 3059 3057 3056 3055 3055 3054 3053 3052 3051 3053 3057 3064 3070 3075 3080 3085 3088 3090 3092 3095 3097 3098 3099 3100 3100 3100 3100 3100 3100 3101 3101 3101 3103 3106 3108 3110 3112 3115
3081 3082 3081 3081 3078 3074 3074 3070 3066 3063 3060 3057 3054 3053 3051 3049 3048 3045 3043 3041 3041 3045 3053 3063 3069 3074 3078 3081 3084 3086 3089 3089 3090 3090 3091 3091 3091 3090 3090 3090 3091 3091 3090 3091 3092 3097 3099 3103 3106
3081 3080 3079 3078 3077 3073 3070 3065 3061 3058 3055 3053 3051 3050 3048 3046 3043 3040 3036 3034 3032 3035 3047 3057 3063 3068 3073 3076 3078 3080 3081 3080 3080 3080 3080 3081 3081 3081 3079 3079 3079 3080 3079 3079 3080 3082 3087 3092 3096
3079 3078 3076 3077 3073 3072 3066 3059 3058 3056 3053 3050 3049 3048 3046 3043 3040 3037 3033 3030 3030 3034 3044 3052 3058 3062 3065 3068 3071 3072 3072 3071 3070 3071 3071 3072 3071 3071 3071 3071 3070 3070 3070 3068 3069 3071 3077 3082 3085
3077 3076 3075 3075 3074 3072 3072 3064 3056 3053 3052 3049 3047 3046 3044 3043 3040 3036 3033 3032 3033 3037 3042 3049 3053 3057 3060 3062 3064 3064 3062 3061 3062 3063 3063 3064 3062 3062 3062 3061 3061 3061 3061 3059 3057 3064 3068 3071 3073
3076 3074 3074 3073 3073 3071 3066 3065 3051 3050 3049 3047 3044 3043 3041 3040 3039 3036 3035 3035 3036 3039 3041 3044 3049 3051 3054 3055 3055 3055 3055 3055 3055 3055 3054 3053 3053 3052 3051 3051 3053 3052 3054 3054 3052 3054 3056 3058 3062
3074 3073 3071 3069 3069 3067 3061 3061 3049 3048 3047 3044 3042 3040 3039 3039 3037 3035 3035 3036 3037 3038 3040 3042 3044 3046 3048 3048 3048 3047 3048 3048 3048 3048 3046 3044 3042 3042 3041 3040 3044 3046 3046 3048 3049 3050 3051 3054 3056
3073 3073 3071 3070 3066 3062 3059 3058 3050 3048 3046 3043 3040 3039 3038 3037 3035 3034 3034 3033 3033 3035 3037 3039 3039 3040 3042 3044 3043 3042 3042 3043 3044 3043 3042 3040 3036 3035 3033 3035 3037 3038 3039 3041 3042 3043 3045 3046 3050
3072 3072 3071 3071 3065 3060 3057 3055 3051 3047 3044 3041 3039 3038 3036 3035 3034 3034 3033 3031 3031 3031 3032 3034 3034 3034 3036 3040 3038 3039 3035 3038 3037 3037 3036 3036 3034 3031 3031 3030 3031 3032 3033 3035 3037 3040 3041 3043 3045
3070 3070 3070 3068 3063 3061 3056 3052 3049 3046 3042 3040 3038 3036 3034 3032 3033 3033 3031 3030 3031 3030 3030 3028 3029 3030 3030 3035 3033 3033 3035 3036 3035 3035 3033 3030 3030 3029 3027 3027 3027 3029 3031 3031 3031 3033 3035 3036 3038
3071 3070 3069 3068 3067 3060 3054 3052 3049 3044 3041 3039 3036 3034 3033 3031 3031 3032 3032 3032 3032 3032 3031 3030 3032 3032 3031 3032 3032 3032 3031 3031 3032 3034 3033 3031 3030 3027 3024 3024 3025 3024 3025 3026 3027 3028 3028 3029 3031
3070 3069 3069 3068 3067 3065 3059 3054 3050 3046 3042 3039 3037 3036 3034 3035 3034 3034 3034 3035 3034 3033 3033 3034 3035 3035 3037 3038 3038 3038 3036 3035 3034 3035 3033 3031 3030 3028 3026 3024 3023 3022 3022 3022 3023 3023 3023 3023 3024
3070 3068 3067 3066 3066 3064 3062 3056 3051 3047 3044 3042 3040 3039 3039 3039 3039 3038 3036 3036 3037 3039 3040 3041 3041 3041 3040 3040 3039 3038 3037 3035 3033 3032 3030 3028 3027 3026 3025 3024 3023 3022 3021 3020 3020 3019 3018 3018 3018